Location: Crocus Hill
(18.2167°N, 63.0667°W)
Time: 15:58:19
(UTC+00:00)

Cosmos 2058 Rocket - Pass Details

Date: 26 January 2020
Orbit: 610 x 639 km, 82.5° (Epoch: 22 February)

Event Time Altitude Azimuth Distance (km) Brightness Sun altitude
Rises 09:54:56 0° 207° (SSW) 2,897 6.4 -12.5°
Reaches altitude 10° 09:57:26 10° 219° (SW) 1,987 5.4 -12.0°
Maximum altitude 10:01:10 27° 277° (W) 1,194 3.9 -11.1°
Drops below altitude 10° 10:04:53 10° 335° (NNW) 1,976 5.3 -10.3°
Sets 10:07:22 0° 348° (NNW) 2,878 6.2 -9.7°
